Home > Weather > Durham > Past weeks

Flag for USA Past Weather in Durham, North Carolina, USA — Yesterday and Last 2 Weeks

Now
80 °F

Partly sunny.


Feels Like: 81 °F
Forecast: 64 / 89 °F
Wind: 5 mph from East

Location: Raleigh-Durham International Airport

Current Time: Jun 26, 2016 at 8:25:01 PM

Latest Report: Jun 26, 2016 at 7:51 PM


Visibility: 10 mi

Pressure: 30.11 "Hg

Humidity: 54%

Dew Point: 62 °F

Location of DurhamLocation

Past Weather in Durham — Graph

°F

Durham Temperature Yesterday

Maximum temperature yesterday: 85 °F (at 3:51 PM)
Minimum temperature yesterday: 72 °F (at 5:51 AM)
Average temperature yesterday: 76 °F

High & Low Weather Summary for the Past Weeks

 TemperatureHumidityPressure
High92 °F (Jun 12, 2:51 PM)97% (Jun 15, 9:51 PM)30.38 "Hg (Jun 15, 9:51 PM)
Low56 °F (Jun 19, 5:51 AM)26% (Jun 18, 4:51 PM)29.67 "Hg (Jun 16, 11:51 PM)
Average77 °F67%30.01 "Hg
* Reported Jun 11 6:51 PM — Jun 26 6:51 PM, Durham, Weather by CustomWeather, © 2016

Note: Actual official high and low records may vary slightly from our data, if they occured in-between our weather recording intervals... More about our weather records

Advertising

Durham Weather History for the Previous 24 Hours

Scroll right to see more
 ConditionsComfort  
Time TempWeatherWind HumidityBarometerVisibility
6:51 PM
Sun, Jun 26
83 °FPartly sunny.6 mph46%30.11 "Hg10 mi
5:51 PM84 °FScattered clouds.8 mph45%30.13 "Hg10 mi
4:51 PM84 °FScattered clouds.3 mph40%30.15 "Hg10 mi
3:51 PM84 °FPartly sunny.6 mph41%30.16 "Hg10 mi
2:51 PM83 °FPartly sunny.3 mph40%30.18 "Hg10 mi
1:51 PM82 °FPartly sunny.8 mph44%30.20 "Hg10 mi
12:51 PM82 °FPartly sunny.6 mph49%30.20 "Hg10 mi
11:51 AM80 °FPartly sunny.3 mph49%30.21 "Hg10 mi
10:51 AM77 °FPartly sunny.6 mph54%30.21 "Hg10 mi
9:51 AM75 °FPartly sunny.6 mph58%30.20 "Hg10 mi
8:51 AM72 °FPartly sunny.3 mph71%30.20 "Hg10 mi
7:51 AM69 °FScattered clouds.5 mph81%30.20 "Hg10 mi
6:51 AM66 °FPassing clouds.5 mph93%30.21 "Hg10 mi
5:51 AM64 °FFog.3 mph97%30.20 "Hg6 mi
4:51 AM67 °FPartly cloudy.No wind93%30.19 "Hg7 mi
3:51 AM67 °FPartly cloudy.No wind90%30.19 "Hg9 mi
2:51 AM68 °FPassing clouds.3 mph90%30.18 "Hg10 mi
1:51 AM71 °FPassing clouds.7 mph81%30.18 "Hg10 mi
12:51 AM72 °FPassing clouds.7 mph78%30.17 "Hg10 mi
11:51 PM
Sat, Jun 25
74 °FPassing clouds.6 mph82%30.17 "Hg10 mi
10:51 PM73 °FPassing clouds.6 mph88%30.16 "Hg10 mi
9:51 PM73 °FPassing clouds.5 mph88%30.15 "Hg10 mi
8:51 PM75 °FScattered clouds.5 mph82%30.14 "Hg10 mi
Weather by CustomWeather, © 2016

See weather overviewHow to use our weather pages